sat.trackr.live / text

‹ back to catalog

STARLINK-2452

NORAD 48115 · 2021-027Z

PAYLOAD ACTIVE UNKNOWN

§ Identity

Operator
Country
US
Launch date
2021-04-07
Launch site
AFETR
Launch vehicle
Mass (kg)
RCS (m²)

Purposes: comms

External: N2YO · Heavens-Above · Gunter

§ Orbital elements

Epoch: 2026-05-25T00:53:38.386176Z

Period
94.01 min
Inclination
53.1587°
Eccentricity
0.0001386
Mean motion
15.31698421 rev/d
Perigee alt
469.8 km
Apogee alt
471.7 km
Semi-major
6,848.9 km
B*
2.6303e-5
RAAN
159.8185°
Arg perigee
84.3157°
Mean anomaly
275.8002°
Rev number
28,434

§ Raw data

STARLINK-24521 48115U 21027Z   26145.03724984  .00000451  00000+0  26303-4 0  99932 48115  53.1587 159.8185 0001386  84.3157 275.8002 15.31698421284348

JSON: /api/v1/satellites/48115 · /tle

For live sub-satellite position, see the globe view (requires WebGL).

§ Visibility from observer

Set your observer location to see the next 7 days of passes ≥ 10°. The values pass through the URL so the page stays shareable.

No JS? Fill the form by hand. The geolocation button needs JavaScript.